Algona, IA

5:27 PM CST on December 13, 2017 (GMT -0600)
Algona Municipal

Weather History for KAXA - February, 2015

Change the Weather History Date:

Tuesday, February 24, 2015

  Actual Average Record
Temperature  
Mean Temperature 27 °F -  
Max Temperature 35 °F 31 °F 53 °F (1998)
Min Temperature 19 °F 17 °F 0 °F (2003)
Degree Days  
Heating Degree Days 38    
Moisture  
Dew Point 13 °F    
Average Humidity 57    
Maximum Humidity 80    
Minimum Humidity 35    
Precipitation  
Precipitation 0.00 in - - ()
Sea Level Pressure  
Sea Level Pressure 29.85 in    
Wind  
Wind Speed 22 mph (NW)    
Max Wind Speed 33 mph    
Max Gust Speed 45 mph    
Visibility 10 miles    
Events      
Averages and records for this station are not official NWS values.
T = Trace of Precipitation, MM = Missing Value Source: NWS Daily Summary

Daily Weather History Graph

Daily Weather History Graph

Search for Another Location

Airport or City:

Trip Planner

Search our weather history database for the weather conditions in past years. The results will help you decide how hot, cold, wet, or windy it might be!

Date:

Astronomy

Feb. 24, 2015 Rise Set
Actual Time 7:01 AM CST 5:59 PM CST
Civil Twilight 6:32 AM CST 6:28 PM CST
Nautical Twilight 5:59 AM CST 7:01 PM CST
Astronomical Twilight 5:27 AM CST 7:34 PM CST
Moon 10:27 AM CST (2/24) No Moon Set
Length of Visible Light 11h 55m
Length of Day
10h 58m
Waxing Crescent, 40% of the Moon is Illuminated
Feb 24
Waxing Crescent
Feb 25
First Quarter
Mar 5
Full
Mar 13
Last Quarter
Mar 20
New

Hourly Weather History & Observations

Time (CST) Temp. Windchill Dew Point Humidity Pressure Visibility Wind Dir Wind Speed Gust Speed Precip Events Conditions
12:15 AM 19.4 °F -0.3 °F 3.2 °F 49% 29.96 in 10.0 mi SW 33.4 mph - N/A   Overcast
12:35 AM 21.2 °F 2.4 °F 3.2 °F 46% 29.94 in 10.0 mi SW 32.2 mph 44.9 mph N/A   Overcast
12:55 AM 21.2 °F 3.0 °F 5.0 °F 50% 29.92 in 10.0 mi SW 29.9 mph 38.0 mph N/A   Overcast
1:15 AM 21.2 °F 3.3 °F 5.0 °F 50% 29.91 in 10.0 mi SW 28.8 mph 39.1 mph N/A   Overcast
1:35 AM 19.4 °F 0.8 °F 5.0 °F 54% 29.89 in 10.0 mi SW 28.8 mph 36.8 mph N/A   Overcast
1:55 AM 19.4 °F 1.1 °F 6.8 °F 58% 29.88 in 10.0 mi SW 27.6 mph 33.4 mph N/A   Overcast
2:15 AM 19.4 °F 2.5 °F 8.6 °F 63% 29.87 in 10.0 mi SW 23.0 mph 28.8 mph N/A   Mostly Cloudy
2:35 AM 21.2 °F 4.9 °F 8.6 °F 58% 29.86 in 10.0 mi SW 23.0 mph 29.9 mph N/A   Mostly Cloudy
2:55 AM 21.2 °F 4.5 °F 10.4 °F 63% 29.85 in 10.0 mi SW 24.2 mph 33.4 mph N/A   Mostly Cloudy
3:15 AM 21.2 °F 5.6 °F 10.4 °F 63% 29.83 in 10.0 mi SW 20.7 mph 26.5 mph N/A   Scattered Clouds
3:35 AM 21.2 °F 4.5 °F 10.4 °F 63% 29.82 in 10.0 mi WSW 24.2 mph - N/A   Partly Cloudy
3:55 AM 19.4 °F 3.2 °F 10.4 °F 68% 29.81 in 10.0 mi WSW 20.7 mph 28.8 mph N/A   Partly Cloudy
4:15 AM 19.4 °F 2.8 °F 10.4 °F 68% 29.80 in 10.0 mi WSW 21.9 mph 27.6 mph N/A   Scattered Clouds
4:35 AM 19.4 °F 3.2 °F 10.4 °F 68% 29.79 in 10.0 mi WSW 20.7 mph - N/A   Partly Cloudy
4:55 AM 19.4 °F 3.6 °F 10.4 °F 68% 29.78 in 10.0 mi WSW 19.6 mph 26.5 mph N/A   Clear
5:15 AM 19.4 °F 4.5 °F 10.4 °F 68% 29.78 in 10.0 mi WSW 17.3 mph - N/A   Clear
5:35 AM 19.4 °F 5.5 °F 12.2 °F 74% 29.79 in 10.0 mi WSW 15.0 mph - N/A   Clear
5:55 AM 19.4 °F 4.5 °F 12.2 °F 74% 29.78 in 10.0 mi WSW 17.3 mph 23.0 mph N/A   Clear
6:15 AM 21.2 °F 7.3 °F 12.2 °F 68% 29.78 in 10.0 mi West 16.1 mph - N/A   Clear
6:35 AM 21.2 °F 7.8 °F 12.2 °F 68% 29.78 in 10.0 mi West 15.0 mph - N/A   Partly Cloudy
6:55 AM 24.8 °F 11.9 °F 14.0 °F 64% 29.78 in 10.0 mi West 16.1 mph - N/A   Mostly Cloudy
7:15 AM 24.8 °F 12.4 °F 15.8 °F 69% 29.78 in 10.0 mi West 15.0 mph - N/A   Overcast
7:35 AM 26.6 °F 13.8 °F 17.6 °F 69% 29.79 in 10.0 mi WNW 17.3 mph - N/A   Overcast
7:55 AM 26.6 °F 14.3 °F 17.6 °F 69% 29.80 in 10.0 mi WNW 16.1 mph - N/A   Overcast
8:15 AM 28.4 °F 16.6 °F 19.4 °F 69% 29.81 in 10.0 mi WNW 16.1 mph - N/A   Overcast
8:35 AM 28.4 °F 17.5 °F 19.4 °F 69% 29.80 in 10.0 mi WNW 13.8 mph 20.7 mph N/A   Overcast
8:55 AM 30.2 °F 18.9 °F 21.2 °F 69% 29.81 in 10.0 mi WNW 16.1 mph - N/A   Overcast
9:15 AM 32.0 °F 21.6 °F 23.0 °F 69% 29.81 in 10.0 mi WNW 15.0 mph 24.2 mph N/A   Overcast
9:35 AM 33.8 °F 22.2 °F 23.0 °F 65% 29.81 in 10.0 mi NW 20.7 mph 26.5 mph N/A   Overcast
9:55 AM 33.8 °F 22.5 °F 23.0 °F 65% 29.81 in 10.0 mi NW 19.6 mph 29.9 mph N/A   Overcast
10:15 AM 35.6 °F 23.4 °F 23.0 °F 60% 29.82 in 10.0 mi NW 25.3 mph 33.4 mph N/A   Overcast
10:35 AM 35.6 °F 24.5 °F 23.0 °F 60% 29.83 in 10.0 mi NW 20.7 mph 28.8 mph N/A   Overcast
10:55 AM 33.8 °F 20.8 °F 23.0 °F 65% 29.83 in 10.0 mi NW 26.5 mph 32.2 mph N/A   Overcast
11:15 AM 35.6 °F 24.0 °F 24.8 °F 65% 29.83 in 9.0 mi NNW 23.0 mph - N/A   Overcast
11:35 AM 35.6 °F 23.2 °F 19.4 °F 52% 29.83 in 10.0 mi NNW 26.5 mph 34.5 mph N/A   Mostly Cloudy
11:55 AM 35.6 °F 24.2 °F 15.8 °F 44% 29.84 in 10.0 mi NNW 21.9 mph 34.5 mph N/A   Overcast
12:15 PM 35.6 °F 23.2 °F 14.0 °F 41% 29.84 in 10.0 mi NNW 26.5 mph 39.1 mph N/A   Mostly Cloudy
12:35 PM 35.6 °F 23.4 °F 12.2 °F 38% 29.84 in 10.0 mi NNW 25.3 mph 35.7 mph N/A   Partly Cloudy
12:55 PM 33.8 °F 21.0 °F 12.2 °F 41% 29.84 in 10.0 mi NNW 25.3 mph 38.0 mph N/A   Clear
1:15 PM 33.8 °F 21.0 °F 10.4 °F 38% 29.84 in 10.0 mi NNW 25.3 mph 38.0 mph N/A   Clear
1:35 PM 33.8 °F 20.8 °F 10.4 °F 38% 29.85 in 10.0 mi NW 26.5 mph 36.8 mph N/A   Clear
1:55 PM 33.8 °F 20.8 °F 12.2 °F 41% 29.85 in 10.0 mi NNW 26.5 mph 33.4 mph N/A   Clear
2:15 PM 33.8 °F 21.0 °F 10.4 °F 38% 29.84 in 10.0 mi NNW 25.3 mph 33.4 mph N/A   Clear
2:35 PM 33.8 °F 22.2 °F 10.4 °F 38% 29.86 in 10.0 mi NNW 20.7 mph 36.8 mph N/A   Clear
2:55 PM 33.8 °F 21.6 °F 8.6 °F 35% 29.86 in 10.0 mi NNW 23.0 mph 32.2 mph N/A   Clear
3:15 PM 33.8 °F 21.6 °F 10.4 °F 38% 29.85 in 10.0 mi NNW 23.0 mph 32.2 mph N/A   Clear
3:35 PM 33.8 °F 22.2 °F 12.2 °F 41% 29.85 in 10.0 mi NNW 20.7 mph 28.8 mph N/A   Clear
3:55 PM 33.8 °F 21.9 °F 12.2 °F 41% 29.86 in 10.0 mi NW 21.9 mph 29.9 mph N/A   Clear
4:15 PM 33.8 °F 22.5 °F 14.0 °F 44% 29.86 in 10.0 mi NNW 19.6 mph 31.1 mph N/A   Clear
4:35 PM 33.8 °F 22.5 °F 23.0 °F 65% 29.86 in 10.0 mi NNW 19.6 mph 27.6 mph N/A   Clear
4:55 PM 32.0 °F 19.8 °F 26.6 °F 80% 29.86 in 10.0 mi NNW 20.7 mph 29.9 mph N/A   Clear
5:15 PM 32.0 °F 21.2 °F 12.2 °F 44% 29.87 in 10.0 mi NNW 16.1 mph 25.3 mph N/A   Clear
5:35 PM 32.0 °F 21.6 °F 14.0 °F 48% 29.87 in 10.0 mi NNW 15.0 mph - N/A   Clear
5:55 PM 30.2 °F 20.2 °F 14.0 °F 51% 29.88 in 10.0 mi NNW 12.7 mph - N/A   Clear
6:15 PM 28.4 °F 21.2 °F 15.8 °F 59% 29.89 in 10.0 mi North 6.9 mph - N/A   Clear
6:35 PM 28.4 °F 19.1 °F 15.8 °F 59% 29.89 in 10.0 mi NNW 10.4 mph - N/A   Clear
6:55 PM 26.6 °F 16.8 °F 15.8 °F 64% 29.90 in 10.0 mi NNW 10.4 mph - N/A   Clear
7:15 PM 26.6 °F 18.2 °F 15.8 °F 64% 29.90 in 10.0 mi NNW 8.1 mph - N/A   Clear
7:35 PM 26.6 °F 18.2 °F 14.0 °F 59% 29.90 in 10.0 mi NNW 8.1 mph - N/A   Clear
7:55 PM 24.8 °F 16.9 °F 14.0 °F 64% 29.90 in 10.0 mi North 6.9 mph - N/A   Clear
8:15 PM 23.0 °F 11.1 °F 14.0 °F 68% 29.89 in 10.0 mi North 12.7 mph - N/A   Clear
8:35 PM 24.8 °F 13.4 °F 12.2 °F 59% 29.90 in 10.0 mi North 12.7 mph - N/A   Clear
8:55 PM 23.0 °F 12.4 °F 10.4 °F 59% 29.90 in 10.0 mi North 10.4 mph - N/A   Clear
9:15 PM 23.0 °F 13.9 °F 10.4 °F 59% 29.90 in 10.0 mi North 8.1 mph - N/A   Scattered Clouds
9:35 PM 23.0 °F 13.1 °F 10.4 °F 59% 29.91 in 10.0 mi North 9.2 mph - N/A   Overcast
9:55 PM 23.0 °F 12.4 °F 10.4 °F 59% 29.90 in 10.0 mi North 10.4 mph - N/A   Overcast
10:15 PM 23.0 °F 11.7 °F 8.6 °F 54% 29.90 in 10.0 mi North 11.5 mph - N/A   Overcast
10:35 PM 23.0 °F 11.7 °F 10.4 °F 59% 29.90 in 10.0 mi NNE 11.5 mph - N/A   Overcast
10:50 PM 23.0 °F 10.6 °F 10.4 °F 59% 29.89 in 10.0 mi NNE 13.8 mph - N/A   Overcast
11:15 PM 23.0 °F 11.7 °F 8.6 °F 54% 29.89 in 10.0 mi NNE 11.5 mph - N/A   Overcast
11:35 PM 23.0 °F 11.1 °F 8.6 °F 54% 29.88 in 10.0 mi NE 12.7 mph - N/A   Overcast
11:55 PM 21.2 °F 8.9 °F 8.6 °F 58% 29.88 in 10.0 mi NE 12.7 mph - N/A   Overcast